Location: Olsztyn
(53.7767°N, 20.4765°E)
Time: 17:57:48
(UTC+02:00)

A-11 Canister half - Pass Details

Date: 25 January 2022
Orbit: 1513 x 1686 km, 47.2° (Epoch: 24 May)

Event Time Altitude Azimuth Distance (km) Brightness Sun altitude
Rises 20:21:24 0° 271° (W) 4,700 12.4 -37.0°
Reaches altitude 10° 20:24:33 10° 267° (W) 3,702 11.6 -37.5°
Enters shadow 20:32:20 51° 218° (SW) 1,842 9.3 -38.5°
